Location: Baia Mare
(47.6567°N, 23.5850°E)
Time: 02:27:20
(UTC+03:00)

ISS - Pass Details

Date: 11 September 2018
Orbit: 403 x 409 km, 51.6° (Epoch: 24 September)

Event Time Altitude Azimuth Distance (km) Brightness Sun altitude
Exits shadow 06:11:37 - 294° (WNW) 1,782 -1.0 -8.3°
Reaches altitude 10° 06:12:24 10° 296° (WNW) 1,465 -1.4 -8.2°
Maximum altitude 06:15:39 61° 17° (NNE) 463 -3.4 -7.7°
Drops below altitude 10° 06:18:54 10° 100° (E) 1,458 0.2 -7.2°
Sets 06:20:59 0° 104° (ESE) 2,314 1.2 -6.8°
